Flag for Austria Weather past 2 weeks in Neusiedl am See, Burgenland, Austria

Now
71 °F

Passing clouds.


Feels Like: 76 °F
Forecast: 54 / 72 °F
Wind: 5 mph from South

Location: Eisenstadt

Current Time: Aug 22, 2014 at 6:14:30 PM

Latest Report: Aug 22, 2014 at 5:00 PM


Visibility: 6 mi

Pressure: 29.96 "Hg

Humidity: 58%

Dew point: 55 °F

Location of Neusiedl am SeeLocation

Historic Weather in Neusiedl am See — Graph

°F

Neusiedl am See temperature yesterday

Maximum temperature yesterday: 70 °F (at 3:00 PM)
Minimum temperature yesterday: 54 °F (at 12:00 AM)
Average temperature yesterday: 61 °F

Past Weeks' High & Low Weather Summary

 TemperatureHumidityPressure
High86 °F (Aug 9, 3:00 PM)97% (Aug 13, 5:00 AM)30.06 "Hg (Aug 13, 5:00 AM)
Low53 °F (Aug 18, 6:00 AM)41% (Aug 17, 4:00 PM)29.62 "Hg (Aug 13, 10:00 PM)
Average66 °F72%29.92 "Hg
* Reported Aug 7 5:00 PM — Aug 22 5:00 PM, Neusiedl am See, Weather by CustomWeather, © 2014

Note: Actual official high and low records may vary slightly from our data, if they occured in-between our weather recording intervals... More about our weather records

Advertising

Neusiedl am See weather history for previous 24 hours

 ConditionsComfort  
Time TempWeatherWind HumidityBarometerVisibility
5:00 PM
Aug 22
71 °FPassing clouds.5 mph58%29.96 "Hg6 mi
4:00 PM72 °FMild.6 mph55%29.97 "HgN/A
3:00 PM70 °FMild.7 mph57%29.99 "HgN/A
2:00 PM69 °FMild.3 mph64%30.01 "HgN/A
1:00 PM65 °FMild.3 mph78%30.02 "HgN/A
12:00 PM62 °FCool.3 mph83%30.03 "HgN/A
11:00 AM61 °FCool.3 mph82%30.05 "HgN/A
10:00 AM59 °FCool.3 mph85%30.05 "HgN/A
9:00 AM58 °FCool.3 mph88%30.04 "HgN/A
8:00 AM58 °FOvercast.1 mph86%30.04 "Hg6 mi
7:00 AM57 °FPartly sunny.2 mph88%30.03 "Hg7 mi
6:00 AM55 °FPartly sunny.1 mph93%30.03 "Hg9 mi
5:00 AM55 °FOvercast.2 mph92%30.03 "Hg12 mi
4:00 AM56 °FOvercast.3 mph89%30.03 "Hg12 mi
3:00 AM58 °FCool.1 mph87%30.03 "HgN/A
2:00 AM58 °FOvercast.3 mph89%30.04 "Hg12 mi
1:00 AM57 °FCool.2 mph89%30.05 "HgN/A
12:00 AM57 °FCool.3 mph88%30.06 "HgN/A
11:00 PM
Aug 21
58 °FOvercast.3 mph86%30.06 "Hg16 mi
10:00 PM60 °FCool.3 mph77%30.04 "HgN/A
9:00 PM60 °FCool.2 mph80%30.03 "HgN/A
8:00 PM64 °FPassing clouds.2 mph63%30.01 "Hg16 mi
7:00 PM66 °FPartly sunny.2 mph59%30.00 "Hg9 mi
6:00 PM69 °FMild.1 mph52%29.98 "HgN/A
Weather by CustomWeather, © 2014

See weather overviewHow to use our weather pages